{"data":{"norad_id":64077,"epoch":"2026-05-24T23:20:28.000320Z","epoch_age_seconds":80481,"freshness":"FRESH","line1":"1 64077U 25107P   26144.97254630  .00014565  00000+0  53782-3 0  9990","line2":"2 64077  43.0005 131.0261 0001592 275.1787  84.8883 15.27575360 56692","mean_motion":15.2757536,"eccentricity":0.0001592,"inclination_deg":43.0005,"raan_deg":131.0261,"arg_perigee_deg":275.1787,"mean_anomaly_deg":84.8883,"bstar":0.00053782,"rev_number":5669,"period_min":94.267035048274,"perigee_km":481.97068686566,"apogee_km":484.15529294245,"semimajor_km":6861.1999899041,"source":"CELESTRAK","updated_at":"2026-05-25T13:38:20.260375Z"}}